Other Public Products
Issued by NWS Grand Forks, ND

Home | Current Version | Previous Version | Graphics & Text | Print | Product List | Glossary On
Versions: 1 2 3 4 5 6 7 8 9 10 11 12 13 14 15 16 17 18 19 20 21 22 23 24 25 26 27 28 29 30 31 32 33 34 35 36 37 38 39 40 41 42 43 44 45 46 47 48 49 50
000
FPUS83 KFGF 210531
OPUFGF
PRAIRIE TO PINES WEATHER ROUNDUP
NATIONAL WEATHER SERVICE EASTERN NORTH DAKOTA/GRAND FORKS ND
1200 AM CDT FRI JUL 21 2017

 **SATELLITE DATA USED TO AUGMENT SKY COVER AT AUTOMATED STATIONS**
 *****  WEATHER ACROSS EASTERN NORTH DAKOTA  *****

CITY           SKY/WX    TMP DP  RH WIND       PRES   REMARKS
GRAND FORKS    FAIR      73  65  75 E8        29.87F
GRAND FORKS AF FAIR      70  63  80 SE5       29.88F
GRAND CITY NWS NOT AVBL
BUXTON           N/A     71  69  92 SE6         N/A
DEVILS LAKE    FAIR      73  66  78 NE6       29.89S
FARGO          FAIR      77  67  71 SE7       29.88F
WAHPETON ARPT  FAIR      70  66  88 SE7       29.93F
$$

 *****  WEATHER ACROSS CENTRAL AND WESTERN NORTH DAKOTA  *****

CITY           SKY/WX    TMP DP  RH WIND       PRES   REMARKS
JAMESTOWN      FAIR      72  66  81 E6        29.88S
BISMARCK       FAIR      75  57  53 SE9       29.83F
MINOT          FAIR      70  62  76 E12       29.84F
MINOT AFB      FAIR      67  62  82 SE14      29.81F
GARRISON         N/A     71  56  58 E8        29.85S
WILLISTON      FAIR      77  59  53 E15G23    29.80F
DICKINSON      FAIR      69  60  73 SE17G23   29.82R
HETTINGER      FAIR      71  60  68 S14       29.86F
$$

 *****  OTHER OBSERVATIONS NORTHEAST NORTH DAKOTA  *****

CITY           SKY/WX    TMP DP  RH WIND       PRES   REMARKS
WALHALLA       NOT AVBL
LANGDON        FAIR      66  63  88 E10       29.89F
CAVALIER       FAIR      68  61  77 E5        29.87F
GRAFTON        FAIR      66  64  94 E7        29.88F
CANDO          NOT AVBL
FORT TOTTEN      N/A     74  66  75 S8        29.95S
ROLLA            N/A     64  64 100 E7        29.87F
RUGBY          NOT AVBL
 ***** THE ABOVE OBSERVATIONS ARE NON NWS ARE NOT QUALITY
        CONTROLLED AND MAY MIS-REPORT RAIN FOR SNOW...
$$

 *****  OTHER OBSERVATIONS SOUTHEAST NORTH DAKOTA *****

CITY           SKY/WX    TMP DP  RH WIND       PRES   REMARKS
COOPERSTOWN    FAIR      72  68  88 SE7       29.89F
VALLEY CITY    FAIR      75  73  94 SE7       29.90S
OAKES          NOT AVBL
GWINNER        CLEAR     72  70  94 S3        29.92F
SHEYENNE NWR     N/A     71  70  97 S6        29.95S
BUFFALO          N/A     73  67  82 E8          N/A
WYNDMERE       NOT AVBL
 ***** THE ABOVE OBSERVATIONS ARE NON NWS ARE NOT QUALITY
       CONTROLLED AND MAY MIS-REPORT RAIN FOR SNOW...
$$

  *****  WEATHER ACROSS NORTHERN MINNESOTA  *****

CITY           SKY/WX    TMP DP  RH WIND       PRES   REMARKS
FLAG ISLAND    FAIR      66  63  88 CALM      29.95S FOG
WARROAD        MOCLDY    64  61  88 CALM      29.95F
ROSEAU         FAIR      66  61  82 CALM      29.94F
HALLOCK        FAIR      68  63  83 E8        29.88F
THF RVR FALLS  NOT AVBL
HALSTAD          N/A     68  64  88 S6          N/A
FOSSTON        FAIR      63  57  82 CALM      29.94F
BAUDETTE       MOCLDY    61  58  90 CALM      29.97R
WASKISH        MOCLDY    63  57  82 CALM      29.96F
CROOKSTON      FAIR      72  61  68 SE9       29.89F
$$
  *****  WEATHER ACROSS CENTRAL AND WEST MINNESOTA  *****

CITY           SKY/WX    TMP DP  RH WIND       PRES   REMARKS
BEMIDJI        FAIR      64  59  85 E3        29.95F
PARK RAPIDS      N/A     73  62  68 CALM      29.96F
WADENA         FAIR      66  66 100 CALM      29.95F
DETROIT LAKES  FAIR      72  68  88 S5        29.95F
MOORHEAD       FAIR      72  66  83 SE5       29.91S
FERGUS FALLS   FAIR      72  66  83 SE3       29.93F
ELBOW LAKE     FAIR      70  67  92 E3        29.96S
MORRIS MN      FAIR      70  66  88 S5        29.96S
STAPLES        FAIR      66  66 100 CALM      29.96F
WHEATON        FAIR      70  64  83 SE10      29.95F
$$
  *****  WEATHER ELSEWHERE ACROSS MINNESOTA  *****

CITY           SKY/WX    TMP DP  RH WIND       PRES   REMARKS
DULUTH         FAIR      67  60  78 NW3       29.98S
INTRNTL FALLS  FAIR      54  52  93 CALM      29.97S
ELY            FAIR      57  55  94 CALM      29.99R
CLOQUET        FAIR      64  61  88 W3        29.98S
BRAINERD       FAIR      66  65  96 CALM      29.98S FOG
HIBBING        FAIR      58  58 100 CALM      29.98S
ALEXANDRIA     FAIR      72  67  84 SE7       29.98S
SAINT CLOUD    FAIR      64  64 100 NE5       29.96F
MINNEAPOLIS    MOCLDY    76  68  76 CALM      29.95S
$$

  *****  WEATHER ACROSS SOUTH DAKOTA  *****

CITY           SKY/WX    TMP DP  RH WIND       PRES   REMARKS
SIOUX FALLS    FAIR      77  73  87 E7        29.92F
BROOKINGS      FAIR      73  68  84 SE12      29.96F
WATERTOWN      FAIR      72  67  84 SE5       29.96R
HURON          FAIR      76  70  82 SE8       29.91R
SISSETON         N/A     69  68  96 S3        29.94R
ABERDEEN       FAIR      72  69  90 NE5       29.93S
MITCHELL       FAIR      76  73  91 E7        29.88F
PIERRE         NOT AVBL
MOBRIDGE       TSTM      71  65  81 E25G37    29.90F
RAPID CITY     FAIR      80  60  50 CALM      29.92R
$$

  *****  SOME WEATHER IN NEARBY STATES *****

CITY           SKY/WX    TMP DP  RH WIND       PRES   REMARKS
GLASGOW MT     FAIR      76  48  37 E21G30    29.74F
GREAT FALLS MT FAIR      69  31  24 SW8       29.92R
CHEYENNE WY    FAIR      68  53  58 NW12      30.14F
SCOTTSBLUFF NE FAIR      76  64  66 E7        29.98S
OMAHA NE       MOCLDY    87  77  72 SE12      29.89R HX  99
DES MOINES IA  LGT RAIN  77  72  84 SE6       29.92R
DAVENPORT IA   LGT RAIN  71  67  87 NW6       29.99R
CHICAGO IL     MOCLDY    76  69  79 CALM      29.97S
EAU CLAIRE WI  FOG       65  65 100 CALM      29.97R VSB 1/2
LA CROSSE WI   FAIR      73  70  90 S6        29.96F
$$

  *****  SOME NATIONAL WEATHER *****

CITY           SKY/WX    TMP DP  RH WIND       PRES   REMARKS
LA GUARDIA NY  FAIR      80  69  69 NW13      29.87S
RALEIGH NC     MOCLDY    79  72  79 SW6       30.02S
ATLANTA GA     FAIR      80  74  81 NW8       30.06S
NEW ORLEANS LA FAIR      79  76  90 SW3       30.04S
OKLAHOMA CITY  FAIR      84  69  60 S12       30.01R
ALBUQUERQUE NM FAIR      76  55  48 SE9       30.22R
SALT LAKE CITY MOCLDY    86  54  33 SE13      29.97S
LOS ANGELES CA FAIR      68  61  78 W9        29.96R
BOISE ID       FAIR      77  37  23 SE3       29.95R
SEATTLE WA     FAIR      63  53  70 NW6       30.14R
$$

*** WEATHER ACROSS MANITOBA...SASKATCHEWAN AND ONTARIO ***
                ***ONTARIO***

CITY           SKY/WX    TMP DP  RH WIND       PRES   REMARKS
GERALDTON      PTCLDY    57  48  72 SW5       29.89S
THUNDER BAY    CLEAR     55  55 100 W5        29.94R
SIOUX LOOKOUT  PTCLDY    59  52  77 W3        29.94S
TORONTO        CLEAR     72  66  83 NW8       29.90S
BIG TROUT LK   CLEAR     50  41  71 NW6       29.91R
PICKLE LAKE    NOT AVBL
DRYDEN         CLEAR     63  52  67 SW8       29.95F
KENORA         MOCLDY    64  54  68 SW5       29.97F
$$
                *** MANITOBA***

CITY           SKY/WX    TMP DP  RH WIND       PRES   REMARKS
BRANDON        PTCLDY    63  61  94 E6        29.89F
DAUPHIN        CLEAR     57  55  94 W5        29.88F
ISLAND LAKE    NOT AVBL
PILOT MOUND      N/A     66  59  77 E8          N/A
THE PAS        MOCLDY    61  43  51 E6        29.95S
THOMPSON       PTCLDY    43  37  81 CALM      29.97S
WINNIPEG       MOCLDY    63  57  82 SE6       29.91F
LYNN LAKE      CLEAR     50  39  66 N7        29.98S
CHURCHILL      MOCLDY    48  41  76 SW8       29.85R
GILLAM         PTCLDY    52  41  66 W7        29.92R
$$
                ***SASKATCHEWAN***

CITY           SKY/WX    TMP DP  RH WIND       PRES   REMARKS
ESTEVAN        PTCLDY    66  64  94 E12       29.83F
KINDERSLEY     MOCLDY    64  55  72 E16G23    29.78F
LLOYDMINSTER   CLOUDY    63  61  94 E7        29.84R
PRINCE ALBERT  MOCLDY    66  61  82 E8        29.87F
REGINA         MOCLDY    70  59  68 NE8       29.87R
YORKTON        PTCLDY    64  59  82 SE7       29.89S



USA.gov is the U.S. government's official web portal to all federal, state and local government web resources and services.